Volver al catálogo

COSMOS 2251 DEB

ActivoLEO
NORAD 35668·DEBRIS·🇷🇺 Russia

Lanzado Jun 16, 1993 desde Plesetsk Cosmodrome

Loading…

Próximos Pases (próximas 24 horas)

TLE

ActualizadoSource: Space-Track

Época: Sep 14, 2026, 02:47 UTC

1 35668U 93036APK 26257.11653754  .00000873  00000-0  16231-3 0  9997
2 35668  74.0443  51.5954 0080843  86.5380 274.5031 14.64644038916787

Sigue COSMOS 2251 DEB en tiempo real con AllMySat

Download on the App Store